Time,TemperatureF,DewpointF,PressureIn,WindDirection,WindDirectionDegrees,WindSpeedMPH,WindSpeedGustMPH,Humidity,HourlyPrecipIn,Conditions,Clouds,dailyrainin,SolarRadiationWatts/m^2,SoftwareType,DateUTC
2013-03-19 00:02:00,20.0,17.0,-100.00,WNW,292,8.0,19.0,89,0.00,,,0.00,0.000000,,2013-03-19 05:02:00,
2013-03-19 00:32:00,18.0,15.0,-100.00,WNW,298,8.0,17.0,87,0.00,,,0.00,0.000000,,2013-03-19 05:32:00,
2013-03-19 00:43:00,18.0,15.0,-100.00,WNW,298,8.0,17.0,87,0.00,,,0.00,0.000000,,2013-03-19 05:43:00,
2013-03-19 00:52:00,18.0,15.0,-100.00,WNW,298,8.0,17.0,87,0.00,,,0.00,0.000000,,2013-03-19 05:52:00,
2013-03-19 01:02:00,18.0,15.0,-100.00,WNW,298,8.0,17.0,87,0.00,,,0.00,0.000000,,2013-03-19 06:02:00,
2013-03-19 01:22:00,17.0,14.0,-100.00,WNW,299,8.0,19.0,86,0.00,,,0.00,0.000000,,2013-03-19 06:22:00,
2013-03-19 01:32:00,17.0,14.0,-100.00,WNW,299,8.0,19.0,86,0.00,,,0.00,0.000000,,2013-03-19 06:32:00,
2013-03-19 01:42:00,17.0,14.0,-100.00,WNW,299,8.0,19.0,86,0.00,,,0.00,0.000000,,2013-03-19 06:42:00,
2013-03-19 01:52:00,17.0,14.0,-100.00,WNW,299,8.0,19.0,86,0.00,,,0.00,0.000000,,2013-03-19 06:52:00,
2013-03-19 02:02:00,17.0,14.0,-100.00,WNW,299,8.0,19.0,86,0.00,,,0.00,0.000000,,2013-03-19 07:02:00,
2013-03-19 02:32:00,15.0,11.0,-100.00,WNW,293,8.0,17.0,85,0.00,,,0.00,0.000000,,2013-03-19 07:32:00,
2013-03-19 02:42:00,15.0,11.0,-100.00,WNW,293,8.0,17.0,85,0.00,,,0.00,0.000000,,2013-03-19 07:42:00,
2013-03-19 02:52:00,15.0,11.0,-100.00,WNW,293,8.0,17.0,85,0.00,,,0.00,0.000000,,2013-03-19 07:52:00,
2013-03-19 03:02:00,15.0,11.0,-100.00,WNW,293,8.0,17.0,85,0.00,,,0.00,0.000000,,2013-03-19 08:02:00,
2013-03-19 03:33:00,13.0,9.0,-100.00,WNW,283,9.0,20.0,83,0.00,,,0.00,0.000000,,2013-03-19 08:33:00,
2013-03-19 03:43:00,13.0,9.0,-100.00,WNW,283,9.0,20.0,83,0.00,,,0.00,0.000000,,2013-03-19 08:43:00,
2013-03-19 03:52:00,13.0,9.0,-100.00,WNW,283,9.0,20.0,83,0.00,,,0.00,0.000000,,2013-03-19 08:52:00,
2013-03-19 04:02:00,13.0,9.0,-100.00,WNW,283,9.0,20.0,83,0.00,,,0.00,0.000000,,2013-03-19 09:02:00,
2013-03-19 04:23:00,12.0,8.0,-100.00,WNW,296,8.0,19.0,82,0.00,,,0.00,0.000000,,2013-03-19 09:23:00,
2013-03-19 04:33:00,12.0,8.0,-100.00,WNW,296,8.0,19.0,82,0.00,,,0.00,0.000000,,2013-03-19 09:33:00,
2013-03-19 04:43:00,12.0,8.0,-100.00,WNW,296,8.0,19.0,82,0.00,,,0.00,0.000000,,2013-03-19 09:43:00,
2013-03-19 04:53:00,12.0,8.0,-100.00,WNW,296,8.0,19.0,82,0.00,,,0.00,0.000000,,2013-03-19 09:53:00,
2013-03-19 05:03:00,12.0,8.0,-100.00,WNW,296,8.0,19.0,82,0.00,,,0.00,0.000000,,2013-03-19 10:03:00,
2013-03-19 05:33:00,11.0,7.0,-100.00,WNW,297,9.0,19.0,82,0.00,,,0.00,0.000000,,2013-03-19 10:33:00,
2013-03-19 05:42:00,11.0,7.0,-100.00,WNW,297,9.0,19.0,82,0.00,,,0.00,0.000000,,2013-03-19 10:42:00,
2013-03-19 05:53:00,11.0,7.0,-100.00,WNW,297,9.0,19.0,82,0.00,,,0.00,0.000000,,2013-03-19 10:53:00,
2013-03-19 06:02:00,11.0,7.0,-100.00,WNW,297,9.0,19.0,82,0.00,,,0.00,0.000000,,2013-03-19 11:02:00,
2013-03-19 06:33:00,10.0,5.0,-100.00,WNW,291,9.0,19.0,81,0.00,,,0.00,0.000000,,2013-03-19 11:33:00,
2013-03-19 06:43:00,10.0,5.0,-100.00,WNW,291,9.0,19.0,81,0.00,,,0.00,0.000000,,2013-03-19 11:43:00,
2013-03-19 06:52:00,10.0,5.0,-100.00,WNW,291,9.0,19.0,81,0.00,,,0.00,0.000000,,2013-03-19 11:52:00,
2013-03-19 07:02:00,10.0,5.0,-100.00,WNW,291,9.0,19.0,81,0.00,,,0.00,0.000000,,2013-03-19 12:02:00,
2013-03-19 07:23:00,9.0,4.0,-100.00,WNW,293,9.0,19.0,80,0.00,,,0.00,0.000000,,2013-03-19 12:23:00,
2013-03-19 07:33:00,9.0,4.0,-100.00,WNW,293,9.0,19.0,80,0.00,,,0.00,0.000000,,2013-03-19 12:33:00,
2013-03-19 07:43:00,9.0,4.0,-100.00,WNW,293,9.0,19.0,80,0.00,,,0.00,0.000000,,2013-03-19 12:43:00,
2013-03-19 07:52:00,9.0,4.0,-100.00,WNW,293,9.0,19.0,80,0.00,,,0.00,0.000000,,2013-03-19 12:52:00,
2013-03-19 08:02:00,9.0,4.0,-100.00,WNW,293,9.0,19.0,80,0.00,,,0.00,0.000000,,2013-03-19 13:02:00,
2013-03-19 08:33:00,9.0,4.0,-100.00,WNW,292,8.0,21.0,79,0.00,,,0.00,15.000000,,2013-03-19 13:33:00,
2013-03-19 08:42:00,9.0,4.0,-100.00,WNW,292,8.0,21.0,79,0.00,,,0.00,15.000000,,2013-03-19 13:42:00,
2013-03-19 08:53:00,9.0,4.0,-100.00,WNW,292,8.0,21.0,79,0.00,,,0.00,15.000000,,2013-03-19 13:53:00,
2013-03-19 09:02:00,9.0,4.0,-100.00,WNW,292,8.0,21.0,79,0.00,,,0.00,15.000000,,2013-03-19 14:02:00,
2013-03-19 09:33:00,10.0,4.0,-100.00,WNW,292,10.0,21.0,76,0.00,,,0.00,107.000000,,2013-03-19 14:33:00,
2013-03-19 09:42:00,10.0,4.0,-100.00,WNW,292,10.0,21.0,76,0.00,,,0.00,107.000000,,2013-03-19 14:42:00,
2013-03-19 09:52:00,10.0,4.0,-100.00,WNW,292,10.0,21.0,76,0.00,,,0.00,107.000000,,2013-03-19 14:52:00,
2013-03-19 10:02:00,10.0,4.0,-100.00,WNW,292,10.0,21.0,76,0.00,,,0.00,107.000000,,2013-03-19 15:02:00,
2013-03-19 10:04:00,10.0,3.0,-100.00,WNW,293,10.0,22.0,74,0.00,,,0.00,216.000000,,2013-03-19 15:04:00,
2013-03-19 10:34:00,10.0,3.0,-100.00,WNW,293,10.0,22.0,74,0.00,,,0.00,216.000000,,2013-03-19 15:34:00,
2013-03-19 10:44:00,10.0,3.0,-100.00,WNW,293,10.0,22.0,74,0.00,,,0.00,216.000000,,2013-03-19 15:44:00,
2013-03-19 10:53:00,10.0,3.0,-100.00,WNW,293,10.0,22.0,74,0.00,,,0.00,216.000000,,2013-03-19 15:53:00,
2013-03-19 11:34:00,14.0,6.0,-100.00,WNW,287,8.0,22.0,70,0.00,,,0.00,399.000000,,2013-03-19 16:34:00,
2013-03-19 11:44:00,14.0,6.0,-100.00,WNW,287,8.0,22.0,70,0.00,,,0.00,399.000000,,2013-03-19 16:44:00,
2013-03-19 11:54:00,14.0,6.0,-100.00,WNW,287,8.0,22.0,70,0.00,,,0.00,399.000000,,2013-03-19 16:54:00,
2013-03-19 12:03:00,14.0,6.0,-100.00,WNW,287,8.0,22.0,70,0.00,,,0.00,399.000000,,2013-03-19 17:03:00,
2013-03-19 12:34:00,16.0,6.0,-100.00,WNW,289,12.0,22.0,65,0.00,,,0.00,563.000000,,2013-03-19 17:34:00,
2013-03-19 12:44:00,16.0,6.0,-100.00,WNW,289,12.0,22.0,65,0.00,,,0.00,563.000000,,2013-03-19 17:44:00,
2013-03-19 12:53:00,16.0,6.0,-100.00,WNW,289,12.0,22.0,65,0.00,,,0.00,563.000000,,2013-03-19 17:53:00,
2013-03-19 13:03:00,16.0,6.0,-100.00,WNW,289,12.0,22.0,65,0.00,,,0.00,563.000000,,2013-03-19 18:03:00,
2013-03-19 13:34:00,19.0,8.0,-100.00,WNW,293,8.0,20.0,62,0.00,,,0.00,719.000000,,2013-03-19 18:34:00,
2013-03-19 13:44:00,19.0,8.0,-100.00,WNW,293,8.0,20.0,62,0.00,,,0.00,719.000000,,2013-03-19 18:44:00,
2013-03-19 13:53:00,19.0,8.0,-100.00,WNW,293,8.0,20.0,62,0.00,,,0.00,719.000000,,2013-03-19 18:53:00,
2013-03-19 14:02:00,19.0,8.0,-100.00,WNW,293,8.0,20.0,62,0.00,,,0.00,719.000000,,2013-03-19 19:02:00,
2013-03-19 14:33:00,17.0,5.0,-100.00,West,281,10.0,24.0,59,0.00,,,0.00,651.000000,,2013-03-19 19:33:00,
2013-03-19 14:43:00,17.0,5.0,-100.00,West,281,10.0,24.0,59,0.00,,,0.00,651.000000,,2013-03-19 19:43:00,
2013-03-19 14:53:00,17.0,5.0,-100.00,West,281,10.0,24.0,59,0.00,,,0.00,651.000000,,2013-03-19 19:53:00,
2013-03-19 15:02:00,17.0,5.0,-100.00,West,281,10.0,24.0,59,0.00,,,0.00,651.000000,,2013-03-19 20:02:00,
2013-03-19 15:33:00,19.0,7.0,-100.00,NW,306,10.0,21.0,59,0.00,,,-99.99,406.000000,,2013-03-19 20:33:00,
2013-03-19 15:43:00,19.0,7.0,-100.00,NW,306,10.0,21.0,59,0.00,,,-99.99,406.000000,,2013-03-19 20:43:00,
2013-03-19 15:53:00,19.0,7.0,-100.00,NW,306,10.0,21.0,59,0.00,,,-99.99,406.000000,,2013-03-19 20:53:00,
2013-03-19 16:02:00,19.0,7.0,-100.00,NW,306,10.0,21.0,59,0.00,,,-99.99,406.000000,,2013-03-19 21:02:00,
2013-03-19 16:34:00,18.0,5.0,-100.00,WNW,292,10.0,22.0,56,0.00,,,0.00,374.000000,,2013-03-19 21:34:00,
2013-03-19 16:43:00,18.0,5.0,-100.00,WNW,292,10.0,22.0,56,0.00,,,0.00,374.000000,,2013-03-19 21:43:00,
2013-03-19 16:53:00,18.0,5.0,-100.00,WNW,292,10.0,22.0,56,0.00,,,0.00,374.000000,,2013-03-19 21:53:00,
2013-03-19 17:03:00,18.0,5.0,-100.00,WNW,292,10.0,22.0,56,0.00,,,0.00,374.000000,,2013-03-19 22:03:00,
2013-03-19 17:34:00,17.0,4.0,-100.00,NW,306,8.0,20.0,55,0.00,,,0.00,268.000000,,2013-03-19 22:34:00,
2013-03-19 17:44:00,17.0,4.0,-100.00,NW,306,8.0,20.0,55,0.00,,,0.00,268.000000,,2013-03-19 22:44:00,
2013-03-19 17:53:00,17.0,4.0,-100.00,NW,306,8.0,20.0,55,0.00,,,0.00,268.000000,,2013-03-19 22:53:00,
2013-03-19 18:02:00,17.0,4.0,-100.00,NW,306,8.0,20.0,55,0.00,,,0.00,268.000000,,2013-03-19 23:02:00,
2013-03-19 18:22:00,15.0,2.0,-100.00,WNW,301,9.0,22.0,56,0.00,,,0.00,171.000000,,2013-03-19 23:22:00,
2013-03-19 18:33:00,15.0,2.0,-100.00,WNW,301,9.0,22.0,56,0.00,,,0.00,171.000000,,2013-03-19 23:33:00,
2013-03-19 18:43:00,15.0,2.0,-100.00,WNW,301,9.0,22.0,56,0.00,,,0.00,171.000000,,2013-03-19 23:43:00,
2013-03-19 18:52:00,15.0,2.0,-100.00,WNW,301,9.0,22.0,56,0.00,,,0.00,171.000000,,2013-03-19 23:52:00,
2013-03-19 19:02:00,15.0,2.0,-100.00,WNW,301,9.0,22.0,56,0.00,,,0.00,171.000000,,2013-03-20 00:02:00,
2013-03-19 19:33:00,14.0,2.0,-100.00,WNW,285,9.0,22.0,59,0.00,,,0.00,38.000000,,2013-03-20 00:33:00,
2013-03-19 19:42:00,14.0,2.0,-100.00,WNW,285,9.0,22.0,59,0.00,,,0.00,38.000000,,2013-03-20 00:42:00,
2013-03-19 19:52:00,14.0,2.0,-100.00,WNW,285,9.0,22.0,59,0.00,,,0.00,38.000000,,2013-03-20 00:52:00,
2013-03-19 20:03:00,14.0,2.0,-100.00,WNW,285,9.0,22.0,59,0.00,,,0.00,38.000000,,2013-03-20 01:03:00,
2013-03-19 20:23:00,13.0,4.0,-100.00,WNW,287,7.0,19.0,66,0.00,,,0.00,3.000000,,2013-03-20 01:23:00,
2013-03-19 20:32:00,13.0,4.0,-100.00,WNW,287,7.0,19.0,66,0.00,,,0.00,3.000000,,2013-03-20 01:32:00,
2013-03-19 20:43:00,13.0,4.0,-100.00,WNW,287,7.0,19.0,66,0.00,,,0.00,3.000000,,2013-03-20 01:43:00,
2013-03-19 20:53:00,13.0,4.0,-100.00,WNW,287,7.0,19.0,66,0.00,,,0.00,3.000000,,2013-03-20 01:53:00,
2013-03-19 21:02:00,13.0,4.0,-100.00,WNW,287,7.0,19.0,66,0.00,,,0.00,3.000000,,2013-03-20 02:02:00,
2013-03-19 21:23:00,11.0,3.0,-100.00,WNW,288,9.0,19.0,68,0.00,,,0.00,0.000000,,2013-03-20 02:23:00,
2013-03-19 21:32:00,11.0,3.0,-100.00,WNW,288,9.0,19.0,68,0.00,,,0.00,0.000000,,2013-03-20 02:32:00,
2013-03-19 21:43:00,11.0,3.0,-100.00,WNW,288,9.0,19.0,68,0.00,,,0.00,0.000000,,2013-03-20 02:43:00,
2013-03-19 21:53:00,11.0,3.0,-100.00,WNW,288,9.0,19.0,68,0.00,,,0.00,0.000000,,2013-03-20 02:53:00,
2013-03-19 22:02:00,11.0,3.0,-100.00,WNW,288,9.0,19.0,68,0.00,,,0.00,0.000000,,2013-03-20 03:02:00,
2013-03-19 22:34:00,10.0,3.0,-100.00,WNW,289,7.0,21.0,72,0.00,,,0.00,0.000000,,2013-03-20 03:34:00,
2013-03-19 22:43:00,10.0,3.0,-100.00,WNW,289,7.0,21.0,72,0.00,,,0.00,0.000000,,2013-03-20 03:43:00,
2013-03-19 22:53:00,10.0,3.0,-100.00,WNW,289,7.0,21.0,72,0.00,,,0.00,0.000000,,2013-03-20 03:53:00,
2013-03-19 23:03:00,10.0,3.0,-100.00,WNW,289,7.0,21.0,72,0.00,,,0.00,0.000000,,2013-03-20 04:03:00,
2013-03-19 23:23:00,8.0,1.0,-100.00,WNW,285,8.0,18.0,72,0.00,,,0.00,0.000000,,2013-03-20 04:23:00,
2013-03-19 23:32:00,8.0,1.0,-100.00,WNW,285,8.0,18.0,72,0.00,,,0.00,0.000000,,2013-03-20 04:32:00,
2013-03-19 23:43:00,8.0,1.0,-100.00,WNW,285,8.0,18.0,72,0.00,,,0.00,0.000000,,2013-03-20 04:43:00,
2013-03-19 23:53:00,8.0,1.0,-100.00,WNW,285,8.0,18.0,72,0.00,,,0.00,0.000000,,2013-03-20 04:53:00,